Volver al catálogo

BRAZILSAT B1

ActivoComunicacionesGEO
NORAD 23199·PAYLOAD·🇧🇷 Brazil

Lanzado Aug 10, 1994 desde Guiana Space Centre

Loading…

TLE

ActualizadoSource: Space-Track

Época: Sep 14, 2026, 18:35 UTC

1 23199U 94049A   26257.77466760 -.00000161  00000-0  00000-0 0  9994
2 23199  12.8296  25.9648 0006844 189.1267 345.4407  0.99247458 47099

Sigue BRAZILSAT B1 en tiempo real con AllMySat

Download on the App Store